EDT,Max TemperatureF,Mean TemperatureF,Min TemperatureF,Max Dew PointF,MeanDew PointF,Min DewpointF,Max Humidity, Mean Humidity, Min Humidity, Max Sea Level PressureIn, Mean Sea Level PressureIn, Min Sea Level PressureIn, Max VisibilityMiles, Mean VisibilityMiles, Min VisibilityMiles, Max Wind SpeedMPH, Mean Wind SpeedMPH, Max Gust SpeedMPH,PrecipitationIn, CloudCover, Events, WindDirDegrees
2014-3-1,62,52,42,41,30,19,63,46,33,30.33,30.24,30.19,10,10,10,7,4,,0.00,6,Rain,44
2014-3-2,76,60,45,49,45,39,82,56,35,30.22,30.11,29.92,10,10,10,15,3,21,0.00,3,,234
2014-3-3,67,52,38,60,48,37,98,80,57,30.17,29.91,29.79,10,7,2,15,7,24,0.00,6,Rain,219
2014-3-4,43,38,34,37,24,16,95,59,36,30.25,30.18,30.14,10,10,7,9,4,16,0.00,8,,90
2014-3-5,60,46,34,37,30,22,85,56,34,30.19,30.14,30.06,10,10,10,6,1,,0.00,0,,101
2014-3-6,45,41,37,40,30,16,99,70,33,30.25,30.13,29.98,10,8,2,20,7,30,0.00,4,Rain,64
2014-3-7,61,50,41,46,43,40,98,81,52,30.04,29.97,29.90,10,10,5,12,5,18,0.00,6,Rain,58
2014-3-8,73,55,37,47,38,32,99,59,22,30.11,30.05,30.01,10,10,5,16,3,21,0.00,0,,263
2014-3-9,75,62,49,43,38,30,72,42,25,30.12,30.07,30.02,10,10,10,14,6,21,0.00,0,,277
2014-3-10,78,64,49,45,38,32,68,42,23,30.10,29.98,29.87,10,10,10,15,5,22,0.00,0,,275
2014-3-11,82,65,48,50,43,36,79,46,20,29.91,29.80,29.72,10,10,10,15,5,21,0.00,1,,244
2014-3-12,76,59,42,63,50,23,99,70,45,29.85,29.63,29.43,10,8,2,26,9,36,0.00,5,Rain,256
2014-3-13,56,46,35,22,16,8,53,32,14,30.22,30.04,29.86,10,10,10,15,8,22,0.00,0,,305
2014-3-14,66,48,30,29,21,14,74,37,16,30.31,30.21,30.11,10,10,10,15,2,34,0.00,1,,223
2014-3-15,74,60,46,42,35,27,62,41,22,30.11,30.05,29.99,10,10,10,12,6,18,0.00,0,,234
2014-3-16,57,53,49,53,49,40,100,91,53,30.02,29.85,29.70,10,5,1,9,2,,0.00,7,Rain,65
2014-3-17,48,42,37,48,41,36,100,97,93,29.91,29.80,29.72,10,6,2,12,6,17,0.00,8,Rain,84
2014-3-18,55,46,37,44,39,35,97,83,63,30.14,29.99,29.86,10,10,7,9,5,,0.00,7,,78
2014-3-19,56,50,44,47,45,43,100,90,70,30.16,30.10,30.03,10,6,1,9,3,,0.00,7,,231
2014-3-20,72,60,48,48,31,11,94,46,10,30.09,30.03,29.98,10,10,7,16,7,24,0.00,0,,281
2014-3-21,68,52,35,36,28,23,78,41,18,30.19,30.11,30.05,10,10,10,8,1,,0.00,0,,183
2014-3-22,78,60,43,46,39,32,80,48,27,30.07,30.02,29.95,10,10,10,13,2,16,0.00,1,,269
2014-3-23,69,60,49,50,43,31,82,57,32,30.14,29.99,29.93,10,10,10,14,3,23,0.00,3,Rain,333
2014-3-24,59,46,32,34,30,27,89,51,30,30.24,30.12,30.01,10,10,10,9,3,,0.00,1,,83
2014-3-25,53,45,37,43,28,10,99,56,28,30.11,29.95,29.87,10,9,2,22,5,33,0.00,5,Rain,323
2014-3-26,58,43,28,18,10,3,53,28,11,30.28,30.21,30.12,10,10,10,10,5,18,0.00,0,,256
2014-3-27,65,48,32,33,24,17,67,41,18,30.39,30.29,30.20,10,10,10,9,2,,0.00,1,,124
2014-3-28,57,52,48,57,50,32,100,87,42,30.22,30.15,30.07,10,5,1,6,1,,0.00,8,Rain,40
2014-3-29,68,58,49,65,55,36,100,88,59,30.09,29.85,29.69,10,5,0,17,4,30,0.00,6,Fog-Rain,312
2014-3-30,70,56,43,36,28,19,68,38,14,30.09,29.98,29.87,10,10,10,16,7,26,0.00,0,,318
2014-3-31,80,62,43,33,26,20,51,27,12,30.15,30.09,30.04,10,10,10,9,3,,0.00,0,,274